College Station, TX

8:16 AM CDT on September 26, 2017 (GMT -0500)
Easterwood

Weather History for KCLL - October, 2011

Change the Weather History Date:

Wednesday, October 19, 2011

  Actual Average Record
Temperature  
Mean Temperature 60 °F 70 °F  
Max Temperature 74 °F 81 °F 97 °F (1921)
Min Temperature 45 °F 60 °F 36 °F (1948)
Degree Days  
Heating Degree Days 5 1  
Month to date heating degree days 6 9  
Since 1 July heating degree days 6 11  
Cooling Degree Days 0 6  
Month to date cooling degree days 169 155  
Year to date cooling degree days 3874 2951  
Growing Degree Days 10 (Base 50)    
Moisture  
Dew Point 32 °F    
Average Humidity 42    
Maximum Humidity 65    
Minimum Humidity 19    
Precipitation  
Precipitation 0.00 in 0.19 in 1.88 in (2002)
Month to date precipitation 0.88 3.01  
Year to date precipitation 14.05 31.71  
Sea Level Pressure  
Sea Level Pressure 30.07 in    
Wind  
Wind Speed 11 mph (NW)    
Max Wind Speed 23 mph    
Max Gust Speed 44 mph    
Visibility 10 miles    
Events      
T = Trace of Precipitation, MM = Missing Value Source: NWS Daily Summary

Daily Weather History Graph

Daily Weather History Graph

Search for Another Location

Airport or City:

Trip Planner

Search our weather history database for the weather conditions in past years. The results will help you decide how hot, cold, wet, or windy it might be!

Date:

Astronomy

Oct. 19, 2011 Rise Set
Actual Time 7:30 AM CDT 6:50 PM CDT
Civil Twilight 7:05 AM CDT 7:14 PM CDT
Nautical Twilight 6:37 AM CDT 7:42 PM CDT
Astronomical Twilight 6:09 AM CDT 8:10 PM CDT
Moon No Moon Rise 1:51 PM CDT (10/19)
Length of Visible Light 12h 08m
Length of Day
11h 19m
Waning Gibbous, 54% of the Moon is Illuminated
Oct 19
Waning Gibbous
Oct 19
Last Quarter
Oct 26
New
Nov 2
First Quarter
Nov 10
Full

Hourly Weather History & Observations

Time (CDT) Temp. Windchill Dew Point Humidity Pressure Visibility Wind Dir Wind Speed Gust Speed Precip Events Conditions
12:53 AM 53.1 °F - 37.0 °F 55% 30.06 in 10.0 mi WNW 4.6 mph - N/A   Clear
1:53 AM 54.0 °F - 37.0 °F 53% 30.07 in 10.0 mi WNW 6.9 mph - N/A   Clear
2:53 AM 52.0 °F - 36.0 °F 54% 30.06 in 10.0 mi WNW 5.8 mph - N/A   Clear
3:53 AM 52.0 °F - 35.1 °F 53% 30.06 in 10.0 mi NW 6.9 mph - N/A   Clear
4:53 AM 50.0 °F - 35.1 °F 57% 30.07 in 10.0 mi WNW 6.9 mph - N/A   Clear
5:53 AM 48.2 °F - 35.6 °F 62% 30.09 in 10.0 mi WNW 6.9 mph - N/A   Clear
6:53 AM 46.0 °F 42.5 °F 35.1 °F 66% 30.10 in 10.0 mi West 6.9 mph - N/A   Clear
7:53 AM 46.9 °F - 35.1 °F 63% 30.12 in 10.0 mi WNW 6.9 mph - N/A   Clear
8:53 AM 53.1 °F - 34.0 °F 48% 30.13 in 10.0 mi NW 10.4 mph - N/A   Clear
9:53 AM 59.0 °F - 32.0 °F 36% 30.14 in 10.0 mi NW 15.0 mph 21.9 mph N/A   Clear
10:53 AM 64.4 °F - 30.2 °F 28% 30.14 in 10.0 mi North 16.1 mph 24.2 mph N/A   Clear
11:53 AM 66.9 °F - 28.9 °F 24% 30.13 in 10.0 mi NNW 16.1 mph 29.9 mph N/A   Clear
12:53 PM 70.0 °F - 28.0 °F 21% 30.09 in 10.0 mi NW 13.8 mph 21.9 mph N/A   Clear
1:53 PM 71.1 °F - 27.0 °F 19% 30.06 in 10.0 mi NW 18.4 mph 25.3 mph N/A   Clear
2:53 PM 71.1 °F - 28.0 °F 20% 30.04 in 10.0 mi WNW 20.7 mph 28.8 mph N/A   Clear
3:53 PM 73.0 °F - 28.9 °F 20% 30.02 in 10.0 mi NW 19.6 mph 26.5 mph N/A   Clear
4:53 PM 73.0 °F - 28.0 °F 19% 30.00 in 10.0 mi NW 15.0 mph 28.8 mph N/A   Clear
5:53 PM 73.0 °F - 28.9 °F 20% 29.99 in 10.0 mi NNW 11.5 mph 19.6 mph N/A   Clear
6:53 PM 69.1 °F - 28.9 °F 22% 30.01 in 10.0 mi NNW 8.1 mph - N/A   Clear
7:53 PM 66.0 °F - 30.0 °F 26% 30.04 in 10.0 mi NNW 9.2 mph - N/A   Clear
8:53 PM 64.0 °F - 30.0 °F 28% 30.06 in 10.0 mi North 11.5 mph - N/A   Clear
9:53 PM 62.1 °F - 30.0 °F 30% 30.08 in 10.0 mi North 8.1 mph - N/A   Clear
10:53 PM 59.0 °F - 30.9 °F 35% 30.10 in 10.0 mi NNE 5.8 mph - N/A   Clear
11:53 PM 57.9 °F - 30.9 °F 36% 30.10 in 10.0 mi NNE 6.9 mph - N/A   Clear